Voltar ao catálogo

STARLINK-33986

AtivoComunicaçõesVLEO
NORAD 63870·PAYLOAD·🇺🇸 United States

Lançado May 10, 2025 de Vandenberg Space Force Base

Loading…

Próximas Passagens (próximas 24 horas)

TLE

AtualizadoSource: CelesTrak SupGP

Época: Sep 15, 2026, 03:22 UTC

1 63870C 25094G   26258.14076389 -.00017245  00000+0 -59994-3 0  2582
2 63870  69.9987 115.1405 0003198 273.4087  39.9954 15.29586390    11

Acompanhe STARLINK-33986 em tempo real com AllMySat

Download on the App Store